Baltimore, MD

7:31 PM EDT on May 22, 2017 (GMT -0400)
Baltimore-Washington International

Weather History for KBWI - May, 2013

Change the Weather History Date:

Thursday, May 16, 2013

  Actual Average Record
Temperature  
Mean Temperature 74 °F 63 °F  
Max Temperature 81 °F 74 °F 92 °F (1998)
Min Temperature 67 °F 52 °F 37 °F (1973)
Degree Days  
Heating Degree Days 0 4  
Month to date heating degree days 106 90  
Since 1 July heating degree days 4456 4705  
Cooling Degree Days 9 2  
Month to date cooling degree days 20 22  
Year to date cooling degree days 46 36  
Growing Degree Days 24 (Base 50)    
Moisture  
Dew Point 58 °F    
Average Humidity 57    
Maximum Humidity 68    
Minimum Humidity 45    
Precipitation  
Precipitation T in 0.13 in 1.96 in (2003)
Month to date precipitation 2.23 1.97  
Year to date precipitation 12.66 15.01  
Snow  
Snow 0.00 in 0.00 in - ()
Month to date snowfall 0.0 0.0  
Since 1 July snowfall 8.0 20.1  
Snow Depth 0.00 in    
Sea Level Pressure  
Sea Level Pressure 29.81 in    
Wind  
Wind Speed 9 mph (West)    
Max Wind Speed 20 mph    
Max Gust Speed 25 mph    
Visibility 10 miles    
Events Rain    
T = Trace of Precipitation, MM = Missing Value Source: NWS Daily Summary

Daily Weather History Graph

Daily Weather History Graph

Search for Another Location

Airport or City:

Trip Planner

Search our weather history database for the weather conditions in past years. The results will help you decide how hot, cold, wet, or windy it might be!

Date:

Astronomy

May. 16, 2013 Rise Set
Actual Time 5:52 AM EDT 8:14 PM EDT
Civil Twilight 5:22 AM EDT 8:44 PM EDT
Nautical Twilight 4:44 AM EDT 9:22 PM EDT
Astronomical Twilight 4:03 AM EDT 10:03 PM EDT
Moon 11:22 AM EDT (5/16) 12:34 AM EDT (5/16)
Length of Visible Light 15h 22m
Length of Day
14h 21m
Waxing Crescent, 35% of the Moon is Illuminated
May 16
Waxing Crescent
May 18
First Quarter
May 25
Full
May 31
Last Quarter
Jun 8
New

Hourly Weather History & Observations

Time (EDT) Temp. Heat Index Dew Point Humidity Pressure Visibility Wind Dir Wind Speed Gust Speed Precip Events Conditions
12:54 AM 73.9 °F - 61.0 °F 64% 29.74 in 10.0 mi WSW 5.8 mph - N/A   Mostly Cloudy
1:54 AM 73.9 °F - 59.0 °F 59% 29.73 in 10.0 mi WSW 5.8 mph - N/A   Mostly Cloudy
2:54 AM 73.0 °F - 55.0 °F 53% 29.73 in 10.0 mi West 6.9 mph - N/A   Mostly Cloudy
3:54 AM 70.0 °F - 55.9 °F 61% 29.73 in 10.0 mi WSW 3.5 mph - N/A   Mostly Cloudy
4:54 AM 68.0 °F - 57.0 °F 68% 29.74 in 10.0 mi West 5.8 mph - N/A   Mostly Cloudy
5:54 AM 68.0 °F - 57.0 °F 68% 29.76 in 10.0 mi West 4.6 mph - N/A   Mostly Cloudy
6:54 AM 68.0 °F - 57.9 °F 70% 29.78 in 10.0 mi SW 3.5 mph - N/A   Mostly Cloudy
7:54 AM 72.0 °F - 55.9 °F 57% 29.81 in 10.0 mi WSW 6.9 mph - N/A   Mostly Cloudy
8:54 AM 73.9 °F - 57.0 °F 55% 29.83 in 10.0 mi Calm Calm - N/A   Mostly Cloudy
9:54 AM 78.1 °F - 57.9 °F 50% 29.83 in 10.0 mi WNW 6.9 mph - N/A   Mostly Cloudy
10:54 AM 79.0 °F - 57.9 °F 48% 29.83 in 10.0 mi West 9.2 mph - N/A   Mostly Cloudy
11:54 AM 79.0 °F - 57.0 °F 47% 29.83 in 10.0 mi West 17.3 mph 21.9 mph 0.00 in   Mostly Cloudy
12:54 PM 77.0 °F - 57.0 °F 50% 29.84 in 10.0 mi WNW 15.0 mph 20.7 mph 0.00 in Rain Light Rain
1:54 PM 78.1 °F - 59.0 °F 52% 29.81 in 10.0 mi WSW 8.1 mph - 0.00 in   Mostly Cloudy
2:54 PM 80.1 °F 80.7 °F 59.0 °F 48% 29.81 in 10.0 mi West 15.0 mph - N/A   Mostly Cloudy
3:54 PM 80.1 °F 80.6 °F 57.9 °F 47% 29.81 in 10.0 mi WNW 11.5 mph - N/A   Mostly Cloudy
4:54 PM 79.0 °F - 60.1 °F 52% 29.80 in 10.0 mi West 12.7 mph - N/A   Mostly Cloudy
5:54 PM 78.8 °F - 59.0 °F 51% 29.82 in 10.0 mi WSW 8.1 mph - N/A   Mostly Cloudy
6:54 PM 77.0 °F - 57.9 °F 52% 29.82 in 10.0 mi West 6.9 mph - N/A   Mostly Cloudy
7:54 PM 75.9 °F - 57.0 °F 52% 29.84 in 10.0 mi West 10.4 mph - N/A   Mostly Cloudy
8:54 PM 73.9 °F - 57.0 °F 55% 29.86 in 10.0 mi West 10.4 mph - N/A   Mostly Cloudy
9:54 PM 72.0 °F - 57.0 °F 59% 29.88 in 10.0 mi West 11.5 mph - N/A   Scattered Clouds
10:54 PM 72.0 °F - 55.9 °F 57% 29.89 in 10.0 mi WSW 6.9 mph - N/A   Scattered Clouds
11:54 PM 70.0 °F - 55.0 °F 59% 29.90 in 10.0 mi West 11.5 mph - N/A   Mostly Cloudy